| time (UTC) | temp C | wind direction | speed KPH | gust KPH | rain 1hr cm | rain 24hr cm | rain mn cm | humidity % | barometer mb |
| 20260508130308 | 7 | 341 | 0.0 | 1.6 | 0.00 | 0.00 | 0.00 | 96 | 1008.4 |
| 20260508125126 | 6 | 284 | 0.0 | 0.0 | 0.00 | 0.00 | 0.00 | 99 | 1008.8 |
| 20260508123936 | 6 | 285 | 0.0 | 0.0 | 0.00 | 0.00 | 0.00 | 99 | 1008.8 |
| 20260508123350 | 5 | 285 | 0.0 | 0.0 | 0.00 | 0.00 | 0.00 | 99 | 1008.8 |
| 20260508122731 | 5 | 285 | 0.0 | 0.0 | 0.00 | 0.00 | 0.00 | 99 | 1008.8 |
| 20260508122120 | 5 | 275 | 0.0 | 0.0 | 0.00 | 0.00 | 0.00 | 99 | 1008.8 |
| 20260508121538 | 4 | 280 | 0.0 | 0.0 | 0.00 | 0.00 | 0.00 | 99 | 1008.8 |
| 20260508120920 | 4 | 283 | 0.0 | 0.0 | 0.00 | 0.00 | 0.00 | 99 | 1008.4 |
| 20260508115710 | 3 | 283 | 0.0 | 0.0 | 0.00 | 0.00 | 0.00 | 99 | 1008.4 |
| 20260508115148 | 3 | 284 | 0.0 | 0.0 | 0.00 | 0.00 | 0.00 | 99 | 1008.1 |
| 20260508114519 | 3 | 297 | 0.0 | 0.0 | 0.00 | 0.00 | 0.00 | 99 | 1008.4 |
| 20260508113930 | 3 | 275 | 0.0 | 0.0 | 0.00 | 0.00 | 0.00 | 99 | 1008.4 |
| 20260508113316 | 3 | 276 | 0.0 | 0.0 | 0.00 | 0.00 | 0.00 | 99 | 1008.4 |
| 20260508112719 | 3 | 285 | 0.0 | 0.0 | 0.00 | 0.00 | 0.00 | 99 | 1008.4 |
| 20260508112143 | 3 | 276 | 0.0 | 0.0 | 0.00 | 0.00 | 0.00 | 99 | 1008.4 |
| 20260508111542 | 2 | 271 | 0.0 | 0.0 | 0.00 | 0.00 | 0.00 | 99 | 1008.4 |
| 20260508110922 | 2 | 272 | 0.0 | 0.0 | 0.00 | 0.00 | 0.00 | 99 | 1008.4 |
| 20260508110326 | 2 | 272 | 0.0 | 0.0 | 0.00 | 0.00 | 0.00 | 99 | 1008.1 |
| 20260508105142 | 2 | 280 | 0.0 | 0.0 | 0.00 | 0.00 | 0.00 | 99 | 1008.1 |
| 20260508103936 | 2 | 3 | 0.0 | 0.0 | 0.00 | 0.00 | 0.00 | 99 | 1008.1 |
| 20260508103338 | 2 | 276 | 0.0 | 0.0 | 0.00 | 0.00 | 0.00 | 99 | 1008.1 |
| 20260508102715 | 2 | 275 | 0.0 | 0.0 | 0.00 | 0.00 | 0.00 | 99 | 1008.1 |
| 20260508102115 | 2 | 277 | 0.0 | 0.0 | 0.00 | 0.00 | 0.00 | 99 | 1008.1 |
| 20260508101512 | 2 | 277 | 0.0 | 0.0 | 0.00 | 0.00 | 0.00 | 99 | 1007.7 |
| 20260508100938 | 2 | 270 | 0.0 | 0.0 | 0.00 | 0.00 | 0.00 | 99 | 1007.7 |
| 20260508100331 | 2 | 261 | 0.0 | 0.0 | 0.00 | 0.00 | 0.00 | 99 | 1007.7 |
| 20260508095748 | 2 | 261 | 0.0 | 0.0 | 0.00 | 0.00 | 0.00 | 99 | 1007.7 |
| 20260508095130 | 2 | 260 | 0.0 | 0.0 | 0.00 | 0.00 | 0.00 | 99 | 1007.7 |
| 20260508094522 | 2 | 270 | 0.0 | 0.0 | 0.00 | 0.00 | 0.00 | 99 | 1007.7 |
| 20260508093943 | 2 | 262 | 0.0 | 0.0 | 0.00 | 0.00 | 0.00 | 99 | 1007.4 |
| 20260508092722 | 3 | 265 | 0.0 | 0.0 | 0.00 | 0.00 | 0.00 | 99 | 1007.7 |
| 20260508092142 | 3 | 261 | 0.0 | 0.0 | 0.00 | 0.00 | 0.00 | 98 | 1007.7 |
| 20260508091528 | 3 | 273 | 0.0 | 0.0 | 0.00 | 0.00 | 0.00 | 98 | 1007.7 |
| 20260508090932 | 3 | 272 | 0.0 | 0.0 | 0.00 | 0.00 | 0.00 | 98 | 1007.4 |
| 20260508085139 | 3 | 273 | 0.0 | 0.0 | 0.00 | 0.00 | 0.00 | 98 | 1007.7 |
| 20260508084547 | 3 | 288 | 0.0 | 0.0 | 0.00 | 0.00 | 0.00 | 98 | 1007.4 |
| 20260508083912 | 3 | 280 | 0.0 | 0.0 | 0.00 | 0.00 | 0.00 | 98 | 1007.7 |
| 20260508083313 | 3 | 258 | 0.0 | 0.0 | 0.00 | 0.00 | 0.00 | 98 | 1007.4 |
| 20260508082735 | 3 | 255 | 0.0 | 0.0 | 0.00 | 0.00 | 0.00 | 98 | 1007.4 |
| 20260508082150 | 3 | 251 | 0.0 | 0.0 | 0.00 | 0.00 | 0.00 | 98 | 1007.4 |
| 20260508081537 | 3 | 236 | 0.0 | 0.0 | 0.00 | 0.00 | 0.00 | 98 | 1007.4 |
| 20260508080328 | 3 | 278 | 0.0 | 0.0 | 0.00 | 0.00 | 0.00 | 98 | 1007.4 |
| 20260508075731 | 3 | 272 | 0.0 | 0.0 | 0.00 | 0.00 | 0.00 | 97 | 1007.4 |
| 20260508075120 | 3 | 274 | 0.0 | 0.0 | 0.00 | 0.00 | 0.00 | 97 | 1007.1 |
| 20260508074529 | 3 | 292 | 0.0 | 0.0 | 0.00 | 0.00 | 0.00 | 97 | 1007.4 |
| 20260508073327 | 3 | 256 | 0.0 | 0.0 | 0.00 | 0.00 | 0.00 | 97 | 1007.1 |
| 20260508072733 | 3 | 261 | 0.0 | 0.0 | 0.00 | 0.00 | 0.00 | 97 | 1007.4 |
| 20260508072115 | 3 | 266 | 0.0 | 0.0 | 0.00 | 0.00 | 0.00 | 97 | 1007.1 |
| 20260508071537 | 3 | 255 | 0.0 | 0.0 | 0.00 | 0.00 | 0.00 | 97 | 1007.1 |
| 20260508070951 | 3 | 266 | 0.0 | 0.0 | 0.00 | 0.00 | 0.00 | 96 | 1007.4 |
| 20260508070338 | 3 | 260 | 0.0 | 0.0 | 0.00 | 0.00 | 0.00 | 97 | 1007.1 |
| 20260508065738 | 3 | 272 | 0.0 | 0.0 | 0.00 | 0.00 | 0.00 | 96 | 1007.4 |
| 20260508065133 | 3 | 263 | 0.0 | 0.0 | 0.00 | 0.00 | 0.00 | 96 | 1007.4 |
| 20260508064520 | 4 | 258 | 0.0 | 0.0 | 0.00 | 0.00 | 0.00 | 97 | 1007.4 |
| 20260508063925 | 4 | 266 | 0.0 | 0.0 | 0.00 | 0.00 | 0.00 | 96 | 1007.4 |
| 20260508063318 | 4 | 257 | 0.0 | 0.0 | 0.00 | 0.00 | 0.00 | 96 | 1007.4 |
| 20260508062742 | 4 | 276 | 0.0 | 0.0 | 0.00 | 0.00 | 0.00 | 96 | 1007.7 |
| 20260508062146 | 4 | 265 | 0.0 | 0.0 | 0.00 | 0.00 | 0.00 | 96 | 1007.4 |
| 20260508061530 | 4 | 272 | 0.0 | 0.0 | 0.00 | 0.00 | 0.00 | 96 | 1007.7 |
| 20260508060909 | 4 | 262 | 0.0 | 0.0 | 0.00 | 0.00 | 0.00 | 96 | 1007.4 |
| 20260508060341 | 4 | 279 | 0.0 | 0.0 | 0.00 | 0.00 | 0.00 | 95 | 1007.4 |
| 20260508055751 | 4 | 297 | 0.0 | 0.0 | 0.00 | 0.00 | 0.00 | 95 | 1007.1 |
| 20260508055141 | 4 | 265 | 0.0 | 0.0 | 0.00 | 0.00 | 0.00 | 95 | 1007.4 |
| 20260508054544 | 4 | 261 | 0.0 | 0.0 | 0.00 | 0.00 | 0.00 | 95 | 1007.4 |
| 20260508052738 | 5 | 261 | 0.0 | 0.0 | 0.00 | 0.00 | 0.00 | 94 | 1007.4 |
| 20260508052132 | 5 | 260 | 0.0 | 0.0 | 0.00 | 0.00 | 0.00 | 94 | 1007.7 |
| 20260508051526 | 5 | 250 | 0.0 | 0.0 | 0.00 | 0.00 | 0.00 | 94 | 1007.7 |
| 20260508050945 | 5 | 260 | 0.0 | 0.0 | 0.00 | 0.00 | 0.00 | 93 | 1007.4 |
| 20260508050309 | 5 | 261 | 0.0 | 0.0 | 0.00 | 0.00 | 0.00 | 93 | 1007.4 |
| 20260508045724 | 5 | 261 | 0.0 | 0.0 | 0.00 | 0.00 | 0.00 | 93 | 1007.7 |
| 20260508045128 | 5 | 256 | 0.0 | 0.0 | 0.00 | 0.00 | 0.00 | 92 | 1007.4 |
| 20260508044542 | 5 | 259 | 0.0 | 0.0 | 0.00 | 0.00 | 0.00 | 92 | 1007.7 |
| 20260508043936 | 5 | 267 | 0.0 | 0.0 | 0.00 | 0.00 | 0.00 | 91 | 1007.4 |
| 20260508043347 | 5 | 206 | 0.0 | 0.0 | 0.00 | 0.00 | 0.00 | 91 | 1007.7 |
| 20260508042723 | 5 | 261 | 0.0 | 0.0 | 0.00 | 0.00 | 0.00 | 91 | 1007.4 |
| 20260508042141 | 5 | 258 | 0.0 | 0.0 | 0.00 | 0.00 | 0.00 | 91 | 1007.7 |
| 20260508041532 | 5 | 266 | 0.0 | 0.0 | 0.00 | 0.00 | 0.00 | 90 | 1007.4 |
| 20260508040318 | 6 | 266 | 0.0 | 0.0 | 0.00 | 0.00 | 0.00 | 90 | 1007.4 |
| 20260508035120 | 6 | 270 | 0.0 | 0.0 | 0.00 | 0.00 | 0.00 | 89 | 1007.4 |
| 20260508034526 | 6 | 268 | 0.0 | 0.0 | 0.00 | 0.00 | 0.00 | 88 | 1007.4 |
| 20260508033916 | 6 | 270 | 0.0 | 0.0 | 0.00 | 0.00 | 0.00 | 88 | 1007.4 |
| 20260508033321 | 6 | 268 | 0.0 | 0.0 | 0.00 | 0.00 | 0.00 | 87 | 1007.4 |
| 20260508032734 | 6 | 286 | 0.0 | 0.0 | 0.00 | 0.00 | 0.00 | 85 | 1007.4 |
| 20260508032147 | 6 | 275 | 0.0 | 0.0 | 0.00 | 0.00 | 0.00 | 85 | 1007.4 |
| 20260508031526 | 6 | 282 | 0.0 | 0.0 | 0.00 | 0.00 | 0.00 | 84 | 1007.4 |
| 20260508030931 | 7 | 263 | 0.0 | 0.0 | 0.00 | 0.00 | 0.00 | 84 | 1007.1 |
| 20260508030311 | 7 | 260 | 0.0 | 0.0 | 0.00 | 0.00 | 0.00 | 85 | 1007.1 |
| 20260508025719 | 7 | 246 | 0.0 | 0.0 | 0.00 | 0.00 | 0.00 | 84 | 1007.4 |
| 20260508025114 | 7 | 266 | 0.0 | 0.0 | 0.00 | 0.00 | 0.00 | 82 | 1007.4 |
| 20260508024525 | 7 | 266 | 0.0 | 0.0 | 0.00 | 0.00 | 0.00 | 82 | 1007.4 |
| 20260508023946 | 7 | 259 | 0.0 | 0.0 | 0.00 | 0.00 | 0.00 | 82 | 1007.1 |
| 20260508023341 | 7 | 261 | 0.0 | 0.0 | 0.00 | 0.00 | 0.00 | 80 | 1007.1 |
| 20260508022723 | 7 | 280 | 0.0 | 0.0 | 0.00 | 0.00 | 0.00 | 79 | 1007.1 |
| 20260508021515 | 8 | 272 | 0.0 | 0.0 | 0.00 | 0.00 | 0.00 | 75 | 1007.1 |
| 20260508020945 | 8 | 263 | 0.0 | 0.0 | 0.00 | 0.00 | 0.00 | 75 | 1007.1 |
| 20260508020349 | 8 | 256 | 0.0 | 0.0 | 0.00 | 0.00 | 0.00 | 74 | 1006.7 |
| 20260508015738 | 8 | 260 | 0.0 | 0.0 | 0.00 | 0.00 | 0.00 | 74 | 1006.7 |
| 20260508015145 | 8 | 260 | 0.0 | 0.0 | 0.00 | 0.00 | 0.00 | 76 | 1006.7 |
| 20260508014517 | 8 | 258 | 0.0 | 0.0 | 0.00 | 0.00 | 0.00 | 76 | 1006.4 |
| 20260508012725 | 9 | 255 | 0.0 | 0.0 | 0.00 | 0.00 | 0.00 | 71 | 1006.4 |
| 20260508011528 | 10 | 244 | 0.0 | 0.0 | 0.00 | 0.00 | 0.00 | 72 | 1006.0 |
| 20260508010935 | 10 | 256 | 0.0 | 0.0 | 0.00 | 0.00 | 0.00 | 71 | 1006.0 |
| 20260508010349 | 10 | 249 | 0.0 | 0.0 | 0.00 | 0.00 | 0.00 | 70 | 1006.0 |
| 20260508005736 | 10 | 248 | 0.0 | 0.0 | 0.00 | 0.00 | 0.00 | 68 | 1005.7 |
| 20260508003908 | 11 | 255 | 0.0 | 0.0 | 0.00 | 0.00 | 0.00 | 65 | 1005.7 |
| 20260508003340 | 12 | 260 | 0.0 | 0.0 | 0.00 | 0.00 | 0.00 | 62 | 1005.7 |
| 20260508002734 | 12 | 261 | 0.0 | 0.0 | 0.00 | 0.00 | 0.00 | 59 | 1005.7 |
| 20260508002110 | 13 | 249 | 0.0 | 0.0 | 0.00 | 0.00 | 0.00 | 60 | 1005.4 |
| 20260508001532 | 14 | 277 | 0.0 | 0.0 | 0.00 | 0.00 | 0.00 | 53 | 1005.4 |
| 20260508000949 | 14 | 228 | 1.6 | 1.6 | 0.00 | 0.00 | 0.00 | 48 | 1005.4 |
| 20260508000335 | 15 | 241 | 4.8 | 4.8 | 0.00 | 0.00 | 0.00 | 44 | 1005.4 |
| 20260507235747 | 15 | 244 | 6.4 | 9.7 | 0.00 | 0.00 | 0.00 | 45 | 1005.4 |
| 20260507235119 | 15 | 231 | 8.0 | 12.9 | 0.00 | 0.00 | 0.00 | 41 | 1005.4 |
| 20260507234551 | 16 | 213 | 8.0 | 9.7 | 0.00 | 0.00 | 0.00 | 44 | 1005.0 |
| 20260507233938 | 16 | 243 | 1.6 | 3.2 | 0.00 | 0.00 | 0.00 | 44 | 1005.0 |
| 20260507233347 | 16 | 247 | 6.4 | 9.7 | 0.00 | 0.00 | 0.00 | 42 | 1005.0 |
| 20260507231535 | 17 | 279 | 4.8 | 4.8 | 0.00 | 0.00 | 0.00 | 40 | 1005.0 |
| 20260507225744 | 17 | 261 | 6.4 | 9.7 | 0.00 | 0.00 | 0.00 | 37 | 1004.7 |
| 20260507225120 | 17 | 263 | 8.0 | 11.3 | 0.00 | 0.00 | 0.00 | 38 | 1005.0 |
| 20260507224527 | 17 | 261 | 4.8 | 4.8 | 0.00 | 0.00 | 0.00 | 38 | 1004.7 |
| 20260507223918 | 17 | 241 | 6.4 | 6.4 | 0.00 | 0.00 | 0.00 | 42 | 1004.7 |
| 20260507223338 | 17 | 231 | 8.0 | 11.3 | 0.00 | 0.00 | 0.00 | 39 | 1004.7 |
| 20260507222719 | 17 | 216 | 6.4 | 6.4 | 0.00 | 0.00 | 0.00 | 39 | 1004.7 |
| 20260507221516 | 17 | 289 | 14.5 | 24.1 | 0.00 | 0.00 | 0.00 | 36 | 1004.7 |
| 20260507220312 | 18 | 244 | 6.4 | 9.7 | 0.00 | 0.00 | 0.00 | 42 | 1004.4 |
| 20260507215738 | 18 | 258 | 8.0 | 9.7 | 0.00 | 0.00 | 0.00 | 42 | 1004.4 |
| 20260507215144 | 18 | 261 | 8.0 | 11.3 | 0.00 | 0.00 | 0.00 | 39 | 1004.4 |
| 20260507213944 | 18 | 232 | 6.4 | 9.7 | 0.00 | 0.00 | 0.00 | 41 | 1004.0 |
| 20260507212737 | 18 | 247 | 8.0 | 12.9 | 0.00 | 0.00 | 0.00 | 43 | 1004.4 |
| 20260507211532 | 17 | 230 | 9.7 | 14.5 | 0.00 | 0.00 | 0.00 | 43 | 1004.0 |
| 20260507210928 | 17 | 248 | 8.0 | 14.5 | 0.00 | 0.00 | 0.00 | 44 | 1004.0 |
| 20260507210344 | 16 | 206 | 8.0 | 11.3 | 0.00 | 0.00 | 0.00 | 45 | 1003.7 |
| 20260507204547 | 18 | 193 | 6.4 | 9.7 | 0.00 | 0.00 | 0.00 | 42 | 1004.0 |
| 20260507202737 | 17 | 205 | 9.7 | 11.3 | 0.00 | 0.00 | 0.00 | 44 | 1003.7 |
| 20260507202152 | 17 | 273 | 6.4 | 9.7 | 0.00 | 0.00 | 0.00 | 46 | 1004.0 |
| 20260507201538 | 17 | 290 | 9.7 | 14.5 | 0.00 | 0.00 | 0.00 | 46 | 1003.7 |
| 20260507200938 | 16 | 297 | 6.4 | 9.7 | 0.00 | 0.00 | 0.00 | 50 | 1004.0 |
| 20260507195752 | 18 | 280 | 6.4 | 6.4 | 0.00 | 0.00 | 0.00 | 43 | 1004.0 |
| 20260507195151 | 18 | 241 | 9.7 | 11.3 | 0.00 | 0.00 | 0.00 | 48 | 1004.0 |
| 20260507194514 | 18 | 228 | 4.8 | 4.8 | 0.00 | 0.00 | 0.00 | 44 | 1004.0 |
| 20260507193951 | 17 | 273 | 6.4 | 9.7 | 0.00 | 0.00 | 0.00 | 50 | 1004.0 |
| 20260507192732 | 18 | 214 | 11.3 | 14.5 | 0.00 | 0.00 | 0.00 | 44 | 1004.0 |
| 20260507192146 | 17 | 216 | 8.0 | 11.3 | 0.00 | 0.00 | 0.00 | 45 | 1004.0 |
| 20260507191535 | 17 | 235 | 8.0 | 11.3 | 0.00 | 0.00 | 0.00 | 44 | 1004.4 |
| 20260507190936 | 17 | 7 | 4.8 | 4.8 | 0.00 | 0.00 | 0.00 | 50 | 1004.4 |
| 20260507185724 | 17 | 335 | 6.4 | 6.4 | 0.00 | 0.00 | 0.00 | 48 | 1004.4 |
| 20260507185150 | 17 | 276 | 6.4 | 6.4 | 0.00 | 0.00 | 0.00 | 48 | 1004.4 |
| 20260507184549 | 16 | 275 | 4.8 | 4.8 | 0.00 | 0.00 | 0.00 | 52 | 1004.7 |
| 20260507183951 | 17 | 275 | 6.4 | 6.4 | 0.00 | 0.00 | 0.00 | 48 | 1004.7 |
| 20260507183308 | 16 | 274 | 6.4 | 6.4 | 0.00 | 0.00 | 0.00 | 55 | 1004.7 |
| 20260507182714 | 16 | 288 | 4.8 | 4.8 | 0.00 | 0.00 | 0.00 | 49 | 1004.7 |
| 20260507182150 | 17 | 289 | 6.4 | 6.4 | 0.00 | 0.00 | 0.00 | 54 | 1004.7 |
| 20260507181510 | 16 | 333 | 3.2 | 3.2 | 0.00 | 0.00 | 0.00 | 52 | 1004.7 |
| 20260507180928 | 17 | 238 | 11.3 | 12.9 | 0.00 | 0.00 | 0.00 | 51 | 1004.7 |
| 20260507180324 | 17 | 246 | 4.8 | 6.4 | 0.00 | 0.00 | 0.00 | 56 | 1004.7 |
| 20260507174520 | 16 | 196 | 3.2 | 4.8 | 0.00 | 0.00 | 0.00 | 52 | 1005.0 |
| 20260507173945 | 17 | 237 | 4.8 | 6.4 | 0.00 | 0.00 | 0.00 | 52 | 1005.0 |
| 20260507172732 | 16 | 278 | 4.8 | 6.4 | 0.00 | 0.00 | 0.00 | 56 | 1005.0 |
| 20260507172129 | 16 | 278 | 3.2 | 3.2 | 0.00 | 0.00 | 0.00 | 53 | 1005.0 |
| 20260507170911 | 15 | 222 | 4.8 | 6.4 | 0.00 | 0.00 | 0.00 | 62 | 1005.0 |
| 20260507170321 | 16 | 233 | 8.0 | 14.5 | 0.00 | 0.00 | 0.00 | 55 | 1005.0 |
| 20260507165750 | 17 | 248 | 3.2 | 4.8 | 0.00 | 0.00 | 0.00 | 53 | 1005.0 |
| 20260507165135 | 16 | 315 | 8.0 | 9.7 | 0.00 | 0.00 | 0.00 | 55 | 1005.4 |
| 20260507163923 | 16 | 349 | 4.8 | 4.8 | 0.00 | 0.00 | 0.00 | 56 | 1005.4 |
| 20260507162722 | 15 | 278 | 3.2 | 4.8 | 0.00 | 0.00 | 0.00 | 55 | 1005.7 |
| 20260507162152 | 16 | 271 | 6.4 | 9.7 | 0.00 | 0.00 | 0.00 | 54 | 1005.4 |
| 20260507161555 | 15 | 251 | 6.4 | 9.7 | 0.00 | 0.00 | 0.00 | 58 | 1005.7 |
| 20260507160923 | 16 | 221 | 6.4 | 9.7 | 0.00 | 0.00 | 0.00 | 59 | 1005.7 |
| 20260507160346 | 15 | 248 | 3.2 | 4.8 | 0.00 | 0.00 | 0.00 | 64 | 1005.7 |
| 20260507155731 | 15 | 316 | 4.8 | 9.7 | 0.00 | 0.00 | 0.00 | 59 | 1005.7 |
| 20260507155123 | 15 | 273 | 1.6 | 1.6 | 0.00 | 0.00 | 0.00 | 57 | 1005.7 |
| 20260507154519 | 15 | 247 | 1.6 | 3.2 | 0.00 | 0.00 | 0.00 | 57 | 1005.7 |
| 20260507153911 | 15 | 250 | 0.0 | 0.0 | 0.00 | 0.00 | 0.00 | 57 | 1005.7 |
| 20260507153315 | 15 | 217 | 1.6 | 3.2 | 0.00 | 0.00 | 0.00 | 57 | 1006.0 |
| 20260507152750 | 14 | 260 | 3.2 | 3.2 | 0.00 | 0.00 | 0.00 | 63 | 1005.7 |
| 20260507151534 | 15 | 238 | 0.0 | 1.6 | 0.00 | 0.00 | 0.00 | 61 | 1006.0 |
| 20260507150347 | 15 | 252 | 4.8 | 4.8 | 0.00 | 0.00 | 0.00 | 58 | 1006.0 |
| 20260507145715 | 14 | 220 | 3.2 | 3.2 | 0.00 | 0.00 | 0.00 | 61 | 1006.0 |
| 20260507145111 | 14 | 236 | 1.6 | 1.6 | 0.00 | 0.00 | 0.00 | 58 | 1006.0 |
| 20260507144515 | 14 | 262 | 4.8 | 4.8 | 0.00 | 0.00 | 0.00 | 64 | 1005.7 |
| 20260507143939 | 14 | 259 | 4.8 | 6.4 | 0.00 | 0.00 | 0.00 | 59 | 1005.7 |
| 20260507143320 | 13 | 207 | 3.2 | 4.8 | 0.00 | 0.00 | 0.00 | 60 | 1006.0 |
| 20260507142123 | 13 | 205 | 1.6 | 1.6 | 0.00 | 0.00 | 0.00 | 66 | 1006.0 |
| 20260507141517 | 13 | 284 | 6.4 | 6.4 | 0.00 | 0.00 | 0.00 | 66 | 1006.0 |
| 20260507140926 | 13 | 274 | 3.2 | 4.8 | 0.00 | 0.00 | 0.00 | 67 | 1006.0 |
| 20260507140342 | 13 | 210 | 1.6 | 3.2 | 0.00 | 0.00 | 0.00 | 66 | 1006.4 |
| 20260507135143 | 12 | 193 | 4.8 | 6.4 | 0.00 | 0.00 | 0.00 | 65 | 1006.4 |
| 20260507134519 | 12 | 282 | 1.6 | 1.6 | 0.00 | 0.00 | 0.00 | 66 | 1006.7 |
| 20260507133319 | 12 | 224 | 3.2 | 3.2 | 0.00 | 0.00 | 0.00 | 73 | 1006.4 |
| 20260507132743 | 11 | 223 | 1.6 | 1.6 | 0.00 | 0.00 | 0.00 | 73 | 1006.7 |
| 20260507132122 | 11 | 201 | 1.6 | 3.2 | 0.00 | 0.00 | 0.00 | 74 | 1006.7 |